Location: Lahas
(43.5538°N, 0.8906°E)
Time: 11:17:46
(UTC+00:00)

Cosmos 2278 - Pass Details

Date: 15 May 2026
Orbit: 837 x 852 km, 71.1° (Epoch: 6 June)

Event Time Altitude Azimuth Distance (km) Brightness Sun altitude
Rises 21:01:22 0° 336° (NNW) 3,429 8.3 -16.1°
Reaches altitude 10° 21:03:51 10° 339° (NNW) 2,489 7.3 -16.4°
Maximum altitude 21:09:34 71° 63° (ENE) 902 3.8 -17.1°
Enters shadow 21:12:32 29° 141° (SE) 1,505 4.4 -17.4°
